User: anonymous   Login
Location: Caltech
(34.1382°N, 118.1253°W)
Time: 05:43:59
(UTC-08:00)
Language:

Cosmos 44 Rocket - Orbit

View from above orbital plane
View from above orbital plane
View from above satellite
View from above satellite

Ground track
Ground track

The orbit data is extracted from the following two-line orbital elements,

1 00877U 64053B   14327.49928010  .00000319  00000-0  91417-4 0  7919
2 00877 065.0777 148.7493 0052308 127.1411 233.4483 14.58952108664845
Epoch (UTC): 23 November 2014 11:58:57
Eccentricity: 0.0052308
inclination: 65.0777°
perigee height: 659 km
apogee height: 733 km
right ascension of ascending node: 148.7493°
argument of perigee: 127.1411°
revolutions per day: 14.58952108
mean anomaly at epoch: 233.4483°
orbit number at epoch: 66484

The dashed part of the orbit path shows where the satellite is in the earth's shadow,  

DLR